TimeCDT,TemperatureF,Dew PointF,Humidity,Sea Level PressureIn,VisibilityMPH,Wind Direction,Wind SpeedMPH,Gust SpeedMPH,PrecipitationIn,Events,Conditions,WindDirDegrees,DateUTC
12:55 AM,36.0,34.0,93,30.30,10.0,Calm,Calm,-,N/A,,Clear,0,2012-09-23 05:55:00
1:55 AM,36.0,35.1,97,30.30,10.0,Calm,Calm,-,N/A,,Clear,0,2012-09-23 06:55:00
2:55 AM,34.0,33.1,96,30.30,10.0,Calm,Calm,-,N/A,,Clear,0,2012-09-23 07:55:00
3:55 AM,33.1,32.0,96,30.31,10.0,Calm,Calm,-,N/A,,Clear,0,2012-09-23 08:55:00
4:55 AM,33.1,32.0,96,30.32,10.0,Calm,Calm,-,N/A,,Clear,0,2012-09-23 09:55:00
5:55 AM,34.0,33.1,96,30.32,10.0,Calm,Calm,-,N/A,,Clear,0,2012-09-23 10:55:00
6:55 AM,34.0,33.1,96,30.34,10.0,Calm,Calm,-,N/A,,Clear,0,2012-09-23 11:55:00
7:55 AM,37.0,35.1,93,30.36,10.0,Calm,Calm,-,N/A,,Clear,0,2012-09-23 12:55:00
8:55 AM,48.9,41.0,74,30.37,10.0,WNW,3.5,-,N/A,,Clear,300,2012-09-23 13:55:00
9:55 AM,54.0,39.9,59,30.37,10.0,WSW,6.9,-,N/A,,Clear,250,2012-09-23 14:55:00
10:55 AM,57.9,37.0,46,30.38,10.0,West,5.8,-,N/A,,Clear,280,2012-09-23 15:55:00
11:55 AM,60.1,34.0,38,30.36,10.0,WNW,8.1,-,N/A,,Clear,290,2012-09-23 16:55:00
12:55 PM,63.0,34.0,34,30.35,10.0,Calm,Calm,-,N/A,,Clear,0,2012-09-23 17:55:00
1:55 PM,64.9,34.0,32,30.32,10.0,Variable,6.9,16.1,N/A,,Clear,0,2012-09-23 18:55:00
2:55 PM,66.0,30.9,27,30.30,10.0,NW,8.1,-,N/A,,Clear,310,2012-09-23 19:55:00
3:55 PM,66.9,30.9,26,30.28,10.0,NNE,6.9,-,N/A,,Clear,20,2012-09-23 20:55:00
4:55 PM,66.0,30.9,27,30.27,10.0,West,4.6,-,N/A,,Clear,280,2012-09-23 21:55:00
5:55 PM,64.9,30.9,28,30.26,10.0,North,3.5,-,N/A,,Clear,360,2012-09-23 22:55:00
6:55 PM,57.0,34.0,42,30.27,10.0,Calm,Calm,-,N/A,,Clear,0,2012-09-23 23:55:00
7:55 PM,50.0,37.0,61,30.27,10.0,Calm,Calm,-,N/A,,Clear,0,2012-09-24 00:55:00
8:55 PM,44.1,37.9,79,30.28,10.0,Calm,Calm,-,N/A,,Clear,0,2012-09-24 01:55:00
9:55 PM,42.1,36.0,79,30.28,10.0,Calm,Calm,-,N/A,,Clear,0,2012-09-24 02:55:00
10:55 PM,41.0,36.0,82,30.28,10.0,Calm,Calm,-,N/A,,Clear,0,2012-09-24 03:55:00
11:55 PM,39.0,35.1,86,30.28,10.0,Calm,Calm,-,N/A,,Clear,0,2012-09-24 04:55:00